Track STARLINK-1224 now! 10-day predictions STARLINK-1224 is classified as:
1 45186U 20012J 21021.54193843 .00000248 00000-0 35555-4 0 9993 2 45186 53.0577 175.4835 0001916 83.3400 276.7807 15.06396127 52454